Location: Coopersdale
(40.3556°N, 78.9372°W)
Time: 02:03:53
(UTC+00:00)

Tiros 1 despin weight - Pass Details

Date: 20 January 2021
Orbit: 593 x 642 km, 48.2° (Epoch: 02 March)

Event Time Altitude Azimuth Distance (km) Brightness Sun altitude
Rises 22:19:10 0° 266° (W) 2,867 ? -0.7°
Reaches altitude 10° 22:21:36 10° 274° (W) 1,955 ? -1.1°
Maximum altitude 22:25:48 38° 344° (NNW) 916 ? -1.8°
Drops below altitude 10° 22:29:58 10° 53° (NE) 1,936 ? -2.5°
Enters shadow 22:31:33 - 60° (ENE) 2,518 ? -2.8°
Sets 22:32:23 0° 62° (ENE) 2,834 - -2.9°
